| time (UTC) | temp F | wind direction | speed MPH | gust MPH | rain 1hr in | rain 24hr in | rain mn in | humidity % | barometer mb |
| 20260509090045 | 77 | 248 | 0.0 | 0.0 | 0.00 | 0.00 | 0.00 | 32 | 964.6 |
| 20260509084545 | 77 | 248 | 0.0 | 0.0 | 0.00 | 0.00 | 0.00 | 32 | 964.4 |
| 20260509083035 | 78 | 248 | 0.0 | 0.0 | 0.00 | 0.00 | 0.00 | 32 | 964.4 |
| 20260509081534 | 79 | 248 | 0.0 | 0.0 | 0.00 | 0.00 | 0.00 | 30 | 964.4 |
| 20260509080035 | 80 | 248 | 0.0 | 0.0 | 0.00 | 0.00 | 0.00 | 29 | 964.3 |
| 20260509074528 | 80 | 248 | 0.0 | 0.0 | 0.00 | 0.00 | 0.00 | 29 | 964.3 |
| 20260509073042 | 80 | 248 | 0.0 | 0.0 | 0.00 | 0.00 | 0.00 | 29 | 964.3 |
| 20260509071524 | 81 | 248 | 0.0 | 0.0 | 0.00 | 0.00 | 0.00 | 28 | 964.2 |
| 20260509070022 | 81 | 248 | 0.0 | 0.0 | 0.00 | 0.00 | 0.00 | 28 | 964.2 |
| 20260509064521 | 83 | 248 | 0.0 | 0.0 | 0.00 | 0.00 | 0.00 | 26 | 964.1 |
| 20260509063025 | 84 | 248 | 0.0 | 0.0 | 0.00 | 0.00 | 0.00 | 25 | 964.1 |
| 20260509061521 | 85 | 248 | 0.0 | 0.0 | 0.00 | 0.00 | 0.00 | 24 | 964.0 |
| 20260509060029 | 85 | 248 | 0.0 | 0.0 | 0.00 | 0.00 | 0.00 | 23 | 964.0 |
| 20260509054519 | 87 | 248 | 0.0 | 0.0 | 0.00 | 0.00 | 0.00 | 22 | 964.0 |
| 20260509053023 | 87 | 248 | 0.0 | 0.0 | 0.00 | 0.00 | 0.00 | 22 | 963.9 |
| 20260509051518 | 88 | 248 | 0.0 | 0.0 | 0.00 | 0.00 | 0.00 | 22 | 963.9 |
| 20260509050018 | 88 | 248 | 0.0 | 0.0 | 0.00 | 0.00 | 0.00 | 22 | 963.9 |
| 20260509044525 | 89 | 248 | 0.0 | 0.0 | 0.00 | 0.00 | 0.00 | 22 | 963.8 |
| 20260509043024 | 90 | 248 | 0.0 | 0.0 | 0.00 | 0.00 | 0.00 | 21 | 963.7 |
| 20260509041517 | 91 | 248 | 0.0 | 0.0 | 0.00 | 0.00 | 0.00 | 20 | 963.6 |
| 20260509040016 | 91 | 248 | 0.0 | 0.0 | 0.00 | 0.00 | 0.00 | 20 | 963.3 |
| 20260509034518 | 91 | 248 | 0.0 | 0.0 | 0.00 | 0.00 | 0.00 | 20 | 963.1 |
| 20260509033015 | 92 | 248 | 0.0 | 0.0 | 0.00 | 0.00 | 0.00 | 19 | 962.9 |
| 20260509031517 | 93 | 248 | 0.0 | 0.0 | 0.00 | 0.00 | 0.00 | 18 | 962.8 |
| 20260509030015 | 94 | 248 | 0.0 | 0.0 | 0.00 | 0.00 | 0.00 | 18 | 962.6 |
| 20260509024516 | 95 | 248 | 0.0 | 0.0 | 0.00 | 0.00 | 0.00 | 17 | 962.5 |
| 20260509023013 | 95 | 234 | 0.0 | 0.0 | 0.00 | 0.00 | 0.00 | 17 | 962.3 |
| 20260509021513 | 96 | 238 | 2.0 | 12.0 | 0.00 | 0.00 | 0.00 | 17 | 962.2 |
| 20260509020013 | 96 | 245 | 2.0 | 9.0 | 0.00 | 0.00 | 0.00 | 16 | 962.2 |
| 20260509014512 | 97 | 249 | 3.0 | 12.0 | 0.00 | 0.00 | 0.00 | 16 | 962.1 |
| 20260509013011 | 97 | 237 | 5.0 | 14.0 | 0.00 | 0.00 | 0.00 | 16 | 962.1 |
| 20260509011510 | 98 | 286 | 1.0 | 14.0 | 0.00 | 0.00 | 0.00 | 17 | 962.1 |
| 20260509010016 | 98 | 285 | 10.0 | 16.0 | 0.00 | 0.00 | 0.00 | 17 | 962.1 |
| 20260509004507 | 98 | 212 | 1.0 | 11.0 | 0.00 | 0.00 | 0.00 | 17 | 962.3 |
| 20260509003014 | 98 | 248 | 5.0 | 14.0 | 0.00 | 0.00 | 0.00 | 17 | 962.5 |
| 20260509001504 | 98 | 279 | 3.0 | 16.0 | 0.00 | 0.00 | 0.00 | 17 | 962.6 |
| 20260509000003 | 98 | 261 | 3.0 | 20.0 | 0.00 | 0.00 | 0.00 | 17 | 962.6 |
| 20260508234502 | 98 | 257 | 3.0 | 15.0 | 0.00 | 0.00 | 0.00 | 17 | 962.7 |
| 20260508233059 | 97 | 299 | 8.0 | 17.0 | 0.00 | 0.00 | 0.00 | 17 | 962.9 |
| 20260508231558 | 97 | 271 | 11.0 | 18.0 | 0.00 | 0.00 | 0.00 | 17 | 963.1 |
| 20260508230103 | 97 | 300 | 4.0 | 19.0 | 0.00 | 0.00 | 0.00 | 17 | 963.0 |
| 20260508224555 | 97 | 258 | 11.0 | 19.0 | 0.00 | 0.00 | 0.00 | 17 | 963.2 |
| 20260508223056 | 97 | 251 | 11.0 | 17.0 | 0.00 | 0.00 | 0.00 | 17 | 963.3 |
| 20260508221549 | 96 | 269 | 9.0 | 18.0 | 0.00 | 0.00 | 0.00 | 17 | 963.7 |
| 20260508220049 | 96 | 269 | 6.0 | 17.0 | 0.00 | 0.00 | 0.00 | 18 | 964.0 |
| 20260508214553 | 95 | 284 | 9.0 | 15.0 | 0.00 | 0.00 | 0.00 | 19 | 964.3 |
| 20260508213042 | 95 | 289 | 6.0 | 15.0 | 0.00 | 0.00 | 0.00 | 18 | 964.6 |
| 20260508211539 | 95 | 251 | 0.0 | 12.0 | 0.00 | 0.00 | 0.00 | 19 | 964.7 |
| 20260508210037 | 94 | 218 | 4.0 | 10.0 | 0.00 | 0.00 | 0.00 | 19 | 965.1 |
| 20260508204541 | 92 | 252 | 3.0 | 11.0 | 0.00 | 0.00 | 0.00 | 20 | 965.4 |
| 20260508203032 | 93 | 250 | 1.0 | 12.0 | 0.00 | 0.00 | 0.00 | 20 | 965.6 |
| 20260508201531 | 93 | 234 | 1.0 | 10.0 | 0.00 | 0.00 | 0.00 | 20 | 965.7 |
| 20260508200031 | 92 | 242 | 0.0 | 4.0 | 0.00 | 0.00 | 0.00 | 20 | 966.0 |
| 20260508194527 | 91 | 163 | 0.0 | 10.0 | 0.00 | 0.00 | 0.00 | 22 | 966.2 |
| 20260508193024 | 91 | 198 | 2.0 | 7.0 | 0.00 | 0.00 | 0.00 | 21 | 966.4 |
| 20260508191528 | 90 | 207 | 0.0 | 2.0 | 0.00 | 0.00 | 0.00 | 21 | 966.7 |
| 20260508190026 | 89 | 213 | 2.0 | 9.0 | 0.00 | 0.00 | 0.00 | 22 | 966.9 |
| 20260508184520 | 88 | 273 | 0.0 | 8.0 | 0.00 | 0.00 | 0.00 | 22 | 967.1 |
| 20260508183018 | 87 | 172 | 2.0 | 10.0 | 0.00 | 0.00 | 0.00 | 24 | 967.3 |
| 20260508181518 | 88 | 94 | 0.0 | 0.0 | 0.00 | 0.00 | 0.00 | 23 | 967.4 |
| 20260508180020 | 86 | 88 | 0.0 | 0.0 | 0.00 | 0.00 | 0.00 | 24 | 967.6 |
| 20260508174513 | 86 | 88 | 0.0 | 0.0 | 0.00 | 0.00 | 0.00 | 24 | 967.8 |
| 20260508173010 | 85 | 88 | 0.0 | 0.0 | 0.00 | 0.00 | 0.00 | 25 | 967.8 |
| 20260508171513 | 85 | 88 | 0.0 | 0.0 | 0.00 | 0.00 | 0.00 | 25 | 968.0 |
| 20260508170007 | 83 | 88 | 0.0 | 0.0 | 0.00 | 0.00 | 0.00 | 27 | 968.1 |
| 20260508164504 | 82 | 76 | 0.0 | 0.0 | 0.00 | 0.00 | 0.00 | 27 | 968.2 |
| 20260508163002 | 81 | 76 | 0.0 | 0.0 | 0.00 | 0.00 | 0.00 | 27 | 968.2 |
| 20260508161501 | 81 | 76 | 0.0 | 0.0 | 0.00 | 0.00 | 0.00 | 28 | 968.2 |
| 20260508160158 | 80 | 75 | 0.0 | 0.0 | 0.00 | 0.00 | 0.00 | 29 | 968.3 |
| 20260508154559 | 79 | 76 | 0.0 | 0.0 | 0.00 | 0.00 | 0.00 | 29 | 968.0 |
| 20260508153055 | 78 | 72 | 0.0 | 0.0 | 0.00 | 0.00 | 0.00 | 30 | 968.2 |
| 20260508151554 | 78 | 72 | 0.0 | 0.0 | 0.00 | 0.00 | 0.00 | 30 | 968.3 |
| 20260508150151 | 77 | 72 | 0.0 | 0.0 | 0.00 | 0.00 | 0.00 | 31 | 968.3 |
| 20260508144549 | 76 | 72 | 0.0 | 0.0 | 0.00 | 0.00 | 0.00 | 31 | 968.4 |
| 20260508143059 | 75 | 69 | 0.0 | 0.0 | 0.00 | 0.00 | 0.00 | 32 | 968.4 |
| 20260508141554 | 74 | 84 | 0.0 | 0.0 | 0.00 | 0.00 | 0.00 | 33 | 968.2 |
| 20260508140049 | 73 | 84 | 0.0 | 0.0 | 0.00 | 0.00 | 0.00 | 33 | 968.2 |
| 20260508134543 | 72 | 84 | 0.0 | 0.0 | 0.00 | 0.00 | 0.00 | 34 | 967.9 |
| 20260508133144 | 71 | 84 | 0.0 | 0.0 | 0.00 | 0.00 | 0.00 | 34 | 967.8 |
| 20260508131540 | 71 | 84 | 0.0 | 0.0 | 0.00 | 0.00 | 0.00 | 35 | 967.6 |
| 20260508130037 | 71 | 84 | 0.0 | 0.0 | 0.00 | 0.00 | 0.00 | 34 | 967.3 |
| 20260508124534 | 71 | 84 | 0.0 | 0.0 | 0.00 | 0.00 | 0.00 | 34 | 967.1 |
| 20260508123032 | 71 | 81 | 0.0 | 0.0 | 0.00 | 0.00 | 0.00 | 34 | 966.8 |
| 20260508121630 | 71 | 79 | 0.0 | 0.0 | 0.00 | 0.00 | 0.00 | 34 | 966.8 |
| 20260508120034 | 71 | 79 | 0.0 | 0.0 | 0.00 | 0.00 | 0.00 | 35 | 966.7 |
| 20260508114528 | 71 | 79 | 0.0 | 0.0 | 0.00 | 0.00 | 0.00 | 35 | 966.7 |
| 20260508113026 | 71 | 79 | 0.0 | 0.0 | 0.00 | 0.00 | 0.00 | 35 | 966.7 |
| 20260508111525 | 71 | 79 | 0.0 | 0.0 | 0.00 | 0.00 | 0.00 | 35 | 966.6 |
| 20260508110023 | 71 | 79 | 0.0 | 0.0 | 0.00 | 0.00 | 0.00 | 34 | 966.6 |
| 20260508104525 | 72 | 79 | 0.0 | 0.0 | 0.00 | 0.00 | 0.00 | 33 | 966.6 |
| 20260508103019 | 73 | 79 | 0.0 | 0.0 | 0.00 | 0.00 | 0.00 | 33 | 966.5 |
| 20260508101518 | 72 | 79 | 0.0 | 0.0 | 0.00 | 0.00 | 0.00 | 33 | 966.4 |
| 20260508100017 | 72 | 79 | 0.0 | 0.0 | 0.00 | 0.00 | 0.00 | 33 | 966.2 |
| 20260508094515 | 72 | 79 | 0.0 | 0.0 | 0.00 | 0.00 | 0.00 | 33 | 966.2 |
| 20260508093021 | 72 | 79 | 0.0 | 0.0 | 0.00 | 0.00 | 0.00 | 32 | 966.3 |
| 20260508091513 | 72 | 72 | 0.0 | 0.0 | 0.00 | 0.00 | 0.00 | 31 | 966.2 |